Location: Melara
(45.0500°N, 11.1833°E)
Time: 00:10:06
(UTC+00:00)

UKube-1 - Pass Details

Date: 29 May 2024
Orbit: 581 x 590 km, 98.3° (Epoch: 21 June)

Event Time Altitude Azimuth Distance (km) Brightness Sun altitude
Rises 01:32:43 0° 360° (N) 2,817 ? -16.0°
Reaches altitude 10° 01:35:18 10° 343° (NNW) 1,911 ? -15.8°
Maximum altitude 01:38:21 20° 296° (WNW) 1,359 ? -15.5°
Enters shadow 01:40:07 16° 263° (W) 1,561 ? -15.3°
